Flag for Malta Weather past 2 weeks in Valletta, Malta

Now
77 °F

Passing clouds.


Feels Like: 78 °F
Forecast: 76 / 88 °F
Wind: 5 mph from East

Location: Luqa

Current Time: Sep 18, 2014 at 8:30:42 AM

Latest Report: Sep 18, 2014 at 7:45 AM


Visibility: N/A

Pressure: 30.04 "Hg

Humidity: 89%

Dew point: 73 °F

Location of VallettaLocation

Historic Weather in Valletta — Graph

°F

Valletta temperature yesterday

Maximum temperature yesterday: 84 °F (at 11:15 AM)
Minimum temperature yesterday: 75 °F (at 6:15 AM)
Average temperature yesterday: 79 °F

Past Weeks' High & Low Weather Summary

 TemperatureHumidityPressure
High88 °F (Sep 9, 1:15 PM)100% (Sep 17, 6:15 AM)30.07 "Hg (Sep 17, 6:15 AM)
Low68 °F (Sep 4, 6:15 AM)29% (Sep 14, 3:15 PM)29.80 "Hg (Sep 3, 7:15 AM)
Average78 °F71%29.94 "Hg
* Reported Sep 3 7:15 AM — Sep 18 7:15 AM, Valletta, Weather by CustomWeather, © 2014

Note: Actual official high and low records may vary slightly from our data, if they occured in-between our weather recording intervals... More about our weather records

Advertising

Valletta weather history for previous 24 hours

 ConditionsComfort  
Time TempWeatherWind HumidityBarometerVisibility
7:15 AM
Sep 18
77 °FSprinkles. Passing clouds.8 mph89%30.04 "HgN/A
6:45 AM77 °FPassing clouds.3 mph89%29.98 "HgN/A
6:15 AM77 °FPassing clouds.15 mph89%29.92 "HgN/A
5:45 AM77 °FPassing clouds.10 mph89%29.95 "HgN/A
5:15 AM77 °FLight rain. Passing clouds.6 mph89%29.95 "HgN/A
4:45 AM77 °FClear.12 mph89%29.92 "Hg10 mi
4:15 AM77 °FPassing clouds.9 mph89%29.95 "HgN/A
3:45 AM77 °FPassing clouds.7 mph89%29.95 "HgN/A
3:15 AM77 °FPassing clouds.7 mph89%29.95 "HgN/A
2:45 AM77 °FPassing clouds.7 mph89%29.95 "HgN/A
2:15 AM77 °FPassing clouds.7 mph89%29.95 "HgN/A
1:45 AM75 °FClear.6 mph94%29.95 "Hg10 mi
1:15 AM77 °FPassing clouds.7 mph89%29.95 "HgN/A
12:45 AM77 °FPassing clouds.8 mph89%29.95 "HgN/A
12:15 AM77 °FPartly cloudy.6 mph89%29.98 "HgN/A
11:45 PM
Sep 17
77 °FClear.8 mph89%29.95 "Hg10 mi
11:15 PM77 °FClear.9 mph89%29.98 "Hg10 mi
10:45 PM77 °FPartly cloudy.7 mph89%29.98 "HgN/A
10:15 PM77 °FPassing clouds.6 mph89%29.98 "HgN/A
10:04 PM77 °FPassing clouds.6 mph89%29.98 "HgN/A
9:45 PM77 °FPassing clouds.7 mph89%29.95 "HgN/A
9:15 PM77 °FPassing clouds.8 mph89%29.95 "HgN/A
8:45 PM77 °FPassing clouds.9 mph89%29.95 "HgN/A
8:15 PM77 °FPassing clouds.5 mph89%29.95 "HgN/A
7:45 PM77 °FPartly sunny.5 mph89%29.95 "HgN/A
7:15 PM77 °FPassing clouds.6 mph83%29.95 "HgN/A
6:45 PM79 °FPassing clouds.8 mph79%29.95 "HgN/A
6:15 PM79 °FPassing clouds.12 mph79%29.92 "HgN/A
5:45 PM81 °FScattered clouds.13 mph74%29.92 "HgN/A
5:15 PM81 °FScattered clouds.10 mph74%29.92 "HgN/A
4:45 PM82 °FPassing clouds.12 mph70%29.89 "HgN/A
4:15 PM81 °FPassing clouds.9 mph74%29.92 "HgN/A
3:45 PM81 °FLight rain. Passing clouds.10 mph74%29.92 "HgN/A
3:15 PM81 °FPassing clouds.9 mph74%29.92 "HgN/A
2:45 PM81 °FLight rain. Passing clouds.8 mph74%29.95 "HgN/A
2:15 PM82 °FScattered clouds.9 mph70%29.95 "HgN/A
1:45 PM82 °FPassing clouds.13 mph70%29.95 "HgN/A
1:15 PM82 °FScattered clouds.12 mph70%29.92 "HgN/A
12:45 PM84 °FPassing clouds.9 mph66%29.92 "HgN/A
12:15 PM82 °FScattered clouds.10 mph70%29.92 "HgN/A
11:45 AM84 °FScattered clouds.9 mph66%29.92 "HgN/A
11:15 AM84 °FScattered clouds.7 mph66%29.92 "HgN/A
10:45 AM82 °FScattered clouds.6 mph70%29.92 "HgN/A
10:15 AM82 °FScattered clouds.8 mph74%29.92 "HgN/A
9:45 AM81 °FPartly sunny.6 mph79%29.92 "HgN/A
9:15 AM79 °FPartly sunny.6 mph84%29.92 "HgN/A
8:45 AM79 °FScattered clouds.6 mph89%29.92 "HgN/A
8:15 AM77 °FScattered clouds.5 mph94%29.92 "Hg4 mi
Weather by CustomWeather, © 2014

See weather overviewHow to use our weather pages